Weather History for KEST - February, 2013

Change the Weather History Date:

Tuesday, February 19, 2013

  Actual Average Record
Temperature  
Mean Temperature 5 °F 22 °F  
Max Temperature 12 °F 31 °F - ()
Min Temperature -3 °F 13 °F - ()
Degree Days  
Heating Degree Days 60 43  
Month to date heating degree days 816 874  
Since 1 July heating degree days 5210 5545  
Cooling Degree Days 0 0  
Month to date cooling degree days 0 0  
Year to date cooling degree days 0 0  
Moisture  
Dew Point -5 °F    
Average Humidity 71    
Maximum Humidity 79    
Minimum Humidity 63    
Precipitation  
Precipitation T in 0.02 in - ()
Month to date precipitation 0.43 0.24  
Sea Level Pressure  
Sea Level Pressure 30.16 in    
Wind  
Wind Speed 23 mph (NW)    
Max Wind Speed 38 mph    
Max Gust Speed 51 mph    
Visibility 9 miles    
Events      
T = Trace of Precipitation, MM = Missing Value Source: NWS Daily Summary

Daily Weather History Graph

Daily Weather History Graph

Search for Another Location

Airport or City:

Trip Planner

Search our weather history database for the weather conditions in past years. The results will help you decide how hot, cold, wet, or windy it might be!

Date:

Astronomy

Feb. 19, 2013 Rise Set
Actual Time 7:10 AM CST 5:55 PM CST
Civil Twilight 6:41 AM CST 6:24 PM CST
Nautical Twilight 6:08 AM CST 6:57 PM CST
Astronomical Twilight 5:35 AM CST 7:30 PM CST
Moon 12:22 PM CST (2/19) 2:48 AM CST (2/19)
Length of Visible Light 11h 42m
Length of Day
10h 44m
Waxing Gibbous, 67% of the Moon is Illuminated
Feb 19
Waxing Gibbous
Feb 25
Full
Mar 4
Last Quarter
Mar 11
New
Mar 19
First Quarter

Hourly Weather History & Observations

Time (CST) Temp. Windchill Dew Point Humidity Pressure Visibility Wind Dir Wind Speed Gust Speed Precip Events Conditions
12:27 AM 3.2 °F -19.9 °F -2.2 °F 78% 29.93 in 7.0 mi NW 25.3 mph 36.8 mph 0.00 in   Mostly Cloudy
12:41 AM 3.2 °F -22.5 °F -5.8 °F 66% 29.95 in 8.0 mi NW 33.4 mph 44.9 mph 0.00 in   Mostly Cloudy
12:52 AM 3.0 °F -22.1 °F -4.0 °F 73% 30.03 in 10.0 mi NW 31.1 mph 39.1 mph 0.00 in   Overcast
1:43 AM 1.4 °F -24.3 °F -5.8 °F 72% 29.97 in 10.0 mi NW 31.1 mph 36.8 mph N/A   Scattered Clouds
1:50 AM 1.4 °F -22.3 °F -5.8 °F 72% 29.97 in 10.0 mi NW 25.3 mph 38.0 mph N/A   Mostly Cloudy
1:52 AM 1.9 °F -22.0 °F -5.1 °F 72% 30.05 in 10.0 mi NW 26.5 mph 38.0 mph N/A   Mostly Cloudy
2:52 AM 1.0 °F -22.8 °F -6.0 °F 72% 30.08 in 8.0 mi NW 25.3 mph 42.6 mph N/A   Overcast
3:09 AM 1.4 °F -23.5 °F -4.0 °F 78% 30.00 in 2.5 mi NW 28.8 mph 34.5 mph N/A   Haze
3:17 AM 1.4 °F -22.7 °F -5.8 °F 72% 30.00 in 8.0 mi NW 26.5 mph 39.1 mph N/A   Overcast
3:37 AM 1.4 °F -22.7 °F -5.8 °F 72% 30.00 in 10.0 mi NW 26.5 mph 35.7 mph N/A   Overcast
3:52 AM 1.0 °F -22.8 °F -6.0 °F 72% 30.09 in 10.0 mi NNW 25.3 mph 39.1 mph N/A   Mostly Cloudy
4:06 AM 1.4 °F -22.7 °F -5.8 °F 72% 30.01 in 10.0 mi NW 26.5 mph 33.4 mph N/A   Scattered Clouds
4:22 AM 1.4 °F -22.7 °F -5.8 °F 72% 30.01 in 10.0 mi NW 26.5 mph 33.4 mph N/A   Mostly Cloudy
4:32 AM 1.4 °F -22.3 °F -4.0 °F 78% 30.01 in 8.0 mi NW 25.3 mph - N/A   Mostly Cloudy
4:52 AM 1.9 °F -22.8 °F -4.0 °F 76% 30.10 in 9.0 mi NW 28.8 mph 39.1 mph N/A   Mostly Cloudy
5:52 AM 1.9 °F -19.8 °F -4.0 °F 76% 30.14 in 6.0 mi NW 20.7 mph 31.1 mph N/A   Haze
6:20 AM 1.4 °F -21.0 °F -5.8 °F 72% 30.05 in 10.0 mi NW 21.9 mph 29.9 mph N/A   Scattered Clouds
6:52 AM 1.0 °F -23.2 °F -6.0 °F 72% 30.16 in 10.0 mi NW 26.5 mph 35.7 mph N/A   Partly Cloudy
7:40 AM 1.4 °F -21.0 °F -5.8 °F 72% 30.09 in 9.0 mi NW 21.9 mph 29.9 mph N/A   Mostly Cloudy
7:52 AM 3.0 °F -18.3 °F -2.9 °F 76% 30.18 in 4.0 mi NW 20.7 mph 27.6 mph N/A   Haze
8:15 AM 3.2 °F -19.9 °F -4.0 °F 72% 30.09 in 10.0 mi NW 25.3 mph 36.8 mph N/A   Overcast
8:52 AM 1.0 °F -25.8 °F -7.1 °F 69% 30.23 in 10.0 mi NW 34.5 mph 40.3 mph N/A   Scattered Clouds
9:37 AM 1.4 °F -23.9 °F -7.6 °F 66% 30.16 in 8.0 mi NNW 29.9 mph 34.5 mph N/A   Mostly Cloudy
9:52 AM -0.0 °F -23.3 °F -7.1 °F 72% 30.27 in 7.0 mi NW 23.0 mph 33.4 mph N/A   Mostly Cloudy
10:34 AM 1.4 °F -22.3 °F -7.6 °F 66% 30.17 in 10.0 mi NW 25.3 mph 33.4 mph N/A   Partly Cloudy
10:52 AM 1.9 °F -22.4 °F -6.0 °F 69% 30.28 in 10.0 mi NW 27.6 mph - N/A   Clear
12:52 PM 9.0 °F -11.8 °F -0.9 °F 64% 30.29 in 10.0 mi NW 24.2 mph 31.1 mph N/A   Clear
1:52 PM 10.0 °F -10.8 °F -0.0 °F 64% 30.29 in 10.0 mi WNW 25.3 mph 34.5 mph N/A   Clear
2:52 PM 10.9 °F -9.6 °F -0.0 °F 61% 30.30 in 10.0 mi NW 25.3 mph 32.2 mph N/A   Clear
3:52 PM 10.0 °F -9.5 °F -0.9 °F 61% 30.31 in 10.0 mi NW 21.9 mph - N/A   Clear
4:52 PM 8.1 °F -11.7 °F -2.9 °F 61% 30.34 in 10.0 mi NW 20.7 mph 31.1 mph N/A   Clear
6:52 PM 3.0 °F -19.3 °F -6.0 °F 66% 30.38 in 10.0 mi NNW 23.0 mph - N/A   Clear
7:52 PM -0.0 °F -22.4 °F -7.1 °F 72% 30.39 in 10.0 mi NNW 20.7 mph - N/A   Clear
8:52 PM -0.9 °F -19.9 °F -8.0 °F 72% 30.40 in 10.0 mi North 13.8 mph 24.2 mph N/A   Clear
9:52 PM -2.0 °F -20.5 °F -9.0 °F 72% 30.43 in 10.0 mi NNW 12.7 mph - N/A   Clear
10:52 PM -2.0 °F -21.2 °F -9.0 °F 72% 30.45 in 10.0 mi NNW 13.8 mph - N/A   Clear
11:52 PM -2.9 °F -21.6 °F -9.0 °F 75% 30.47 in 10.0 mi NNW 12.7 mph - N/A   Clear